Regional Weather Roundup
Issued by NWS Upton, NY

Current Version | Previous Version | Graphics & Text | Print | Product List | Glossary Off
Versions: 1 2 3 4 5 6 7 8 9 10 11 12 13 14 15 16 17 18 19 20 21 22 23 24 25 26 27 28 29 30 31 32 33 34 35 36 37 38 39 40 41 42 43 44 45 46 47 48 49 50

618
ASUS41 KOKX 160108
RWROKX

REGIONAL WEATHER ROUNDUP
NATIONAL WEATHER SERVICE NEW YORK NY
800 PM EST FRI DEC 15 2017

NOTE: "FAIR" INDICATES FEW OR NO CLOUDS BELOW 12,000 FEET WITH NO
SIGNIFICANT WEATHER AND/OR OBSTRUCTIONS TO VISIBILITY.

NYZ071-072-176-178-NJZ106-104-160200-
NEW YORK CITY METRO AREA

CITY           SKY/WX    TMP DP  RH WIND       PRES   REMARKS
Central Park   LGT SNOW  24  21  88 NW3       29.92S FOG
Bronx Bot Gard   N/A     25  23  93 W5        29.92R WCI  19
Bronx Lehman C   N/A     25  23  93 W5          N/A  WCI  19
LaGuardia APRT LGT SNOW  26  22  84 W7        29.91S FOG     WCI  18
Queens College   N/A     27  25  93 NW5         N/A  WCI  21
Kennedy INTL   LGT SNOW  26  23  88 W8        29.92F FOG     WCI  18
Breezy Point     N/A    N/A N/A N/A NW5         N/A
Brooklyn Coll    N/A     28  23  80 W6          N/A  WCI  22
Staten Island    N/A     25  23  93 W2          N/A
Newark/Liberty LGT SNOW  24  20  84 W7        29.92F WCI  16
Teterboro      LGT SNOW  24  20  84 SW3       29.91F FOG
$$

NYZ177-179-078>081-160200-
LONG ISLAND NEW YORK

CITY           SKY/WX    TMP DP  RH WIND       PRES   REMARKS
Jones Beach      N/A    N/A N/A N/A NW9         N/A
Wantagh          N/A     27  27 100 W3          N/A
Matinecock PT    N/A    N/A N/A N/A W12         N/A
Farmingdale    LGT SNOW  25  23  92 NW5       29.90S FOG     WCI  19
MacArthur/ISP  LGT SNOW  26  25  96 NW7       29.89S VSB 1   WCI  18
Shirley        LGT SNOW  27  26  96 NW7       29.89S FOG     WCI  19
Mt Sinai Harb    N/A    N/A N/A N/A W3          N/A
Westhampton    LGT SNOW  26  23  88 NW3       29.90S FOG
East Hampton   LGT SNOW  28  27  96 CALM      29.87F
Southold         N/A     28  28 100 SW2         N/A
Montauk          N/A     32  29  88 N5        29.86F WCI  27
$$

NYZ052-065-067-160200-
HUDSON VALLEY

CITY           SKY/WX    TMP DP  RH WIND       PRES   REMARKS
White Plains   LGT SNOW  22  19  89 W5        29.87S FOG     WCI  16
Larchmont Harb   N/A    N/A N/A N/A W8          N/A
Croton On Huds   N/A    N/A N/A N/A S1          N/A
Somers           N/A     21  19  93 W1          N/A
Brewster         N/A     21  19  93 CALM        N/A
Newburgh       MOCLDY    19  19 100 W7        29.88S WCI  10
Montgomery     CLOUDY    20  17  88 SW3       29.87R
Otisville        N/A     19  18  93 SW2         N/A
Warwick          N/A     21  19  93 SW2         N/A
Suffern          N/A     21  19  93 SW1         N/A
Poughkeepsie   CLOUDY    22  18  85 CALM      29.89S FOG
Albany         CLOUDY    21  11  65 S10       29.87R WCI  10
$$

NJZ001-105-106-008-010-013-015-019>022-104-160200-
NEW JERSEY

CITY           SKY/WX    TMP DP  RH WIND       PRES   REMARKS
Newark/Liberty LGT SNOW  24  20  84 W7        29.92F WCI  16
Teterboro      LGT SNOW  24  20  84 SW3       29.91F FOG
Caldwell       CLOUDY    22  20  92 SW3       29.92S
Somerville     CLOUDY    21  20  96 CALM      29.91S
Linden         CLOUDY    24  20  87 CALM      29.93S
Perth Amboy      N/A    N/A N/A N/A W7          N/A
Sussex         CLOUDY    20  17  88 CALM      29.88S
Andover        NOT AVBL
Trenton        CLOUDY    23  20  88 W3        29.93R
Millville      CLOUDY    25  24  96 NW6       29.95R WCI  18
Atlantic City  CLOUDY    25  23  92 NW6       29.94R VSB 1   WCI  18
Wrightstown    CLOUDY    23  20  90 W3        29.91R
Toms River     FLURRIES  23  21  92 NW5       29.94R WCI  17
Belmar         FLURRIES  22  20  92 NW6         N/A  WCI  14
$$

PAZ047>061-062-071-160200-
EASTERN PENNSYLVANIA

CITY           SKY/WX    TMP DP  RH WIND       PRES   REMARKS
Philadelphia   CLOUDY    26  21  81 W8        29.96R WCI  18
Allentown      CLOUDY    22  17  81 W6        29.91S WCI  14
Scranton       CLOUDY    22  17  81 SW9       29.85S WCI  12
$$

CTZ002-004>006-009-010-012-RIZ004-006-007-MAZ004-011-015-160200-
SOUTHERN NEW ENGLAND
 IN CT

CITY           SKY/WX    TMP DP  RH WIND       PRES   REMARKS
Bradley INTL   LGT SNOW  21  19  92 S6        29.88F FOG     WCI  13
Hartford       LGT SNOW  23  20  88 CALM      29.90F FOG
Danbury        LGT SNOW  22  19  89 SW3       29.88F FOG
Wtrbury/Oxford LGT SNOW  21  18  88 W3        29.85F FOG
Norwalk Harbor   N/A    N/A N/A N/A W9          N/A
Bridgeport     LGT SNOW  25  22  88 NW6       29.90S FOG     WCI  18
Meriden        LGT SNOW  22  20  92 CALM      29.88F FOG
New Haven      LGT SNOW  25  22  88 N3        29.89F FOG
Chester        LGT SNOW  23  21  93 NW5       29.86F WCI  17
Groton         LGT SNOW  24  21  88 N7        29.87F FOG     WCI  16
Wilimantic     LGT SNOW  22  18  85 CALM      29.89F FOG

 IN RI

CITY           SKY/WX    TMP DP  RH WIND       PRES   REMARKS
Providence     LGT SNOW  24  21  88 NW3       29.89F FOG
Block Island   LGT SNOW  29  28  96 N8        29.86F FOG     WCI  21
Westerly       LGT SNOW  24  23  96 N6        29.87F FOG     WCI  17
 IN MA

CITY           SKY/WX    TMP DP  RH WIND       PRES   REMARKS
Boston         CLOUDY    26  12  55 SW8       29.88F WCI  18
Worcester      LGT SNOW  19  12  74 SW8       29.81F WCI   9
Westfield      LGT SNOW  21  18  88 S5        29.87F FOG     WCI  15
Provincetown   MIX PCPN  27  23  85 CALM      29.88F
Nantucket      LGT SNOW  31  31 100 N6        29.85F FOG     WCI  25
$$

ANZ330-335-338-340-345-350-353-355-160200-
COASTAL MARINE OBSERVATIONS


STATION/POSITION TIME  SKY/WX   TEMP    WIND        PRES    VSBY  WAVE
                                AIR SEA DIR/SP/G                  HT/PER
                 (UTC)          (F)     (DEG/KT/KT) (MB)    (MI)  (FT/S)
NY HARB ENTRANCE 2350            29 50  300/ 10/ 12 1012.6          2/ 8
20 S FIRE ISLAND 2350            31 51  310/ 10/ 14 1012.4          2/ 8
GREAT SOUTH BAY  NOT AVBL
HUDSON CANYON    2350            37 56  360/ 16/ 17 1010.2          2/ 8
KINGS POINT      0030            25 42  320/  4/  7 1013.7
EXECUTION ROCKS  0030            26     290/  8/ 12   N/A
WESTERN LI SOUND NOT AVBL
CENTRAL LI SOUND 0015            28     360/  6/  8   N/A           1
ROBBINS REEF     0036            24     270/  6/  8 1013.7
$$


>>>>>>>>>>>>>>>>>>>>>>>>>>>> KEY <<<<<<<<<<<<<<<<<<<<<<<<<<<
>                                                          <
>     SKY/WX - Sky Condition/Present Weather               <
>     TMP    - Temperature in Fahrenheit                   <
>     DP     - Dew Point in Fahrenheit                     <
>     RH     - Relative Humidity in Percent                <
>     WIND   - Direction (from) and Speed in MPH           <
>     PRES   - Mean Sea Level Pressure (inches of Hg)      <
>     WCI    - Wind Chill Index                            <
>     VSB    - VISIBILITY IN MILES                         <
>     HX     - HEAT INDEX                                  <
>     TC     - TEMPERATURE IN CELSIUS                      <
>     VRB    - VARIABLE WIND DIRECTION                     <
>                                                          <
>>>>>>>>>>>>>>>>>>>>>>>>>>>> KEY <<<<<<<<<<<<<<<<<<<<<<<<<<<




USA.gov is the U.S. government's official web portal to all federal, state and local government web resources and services.